Weather History for KSPB - November, 2012

Change the Weather History Date:

Sunday, November 4, 2012

  Actual Average Record
Temperature  
Mean Temperature 60 °F -  
Max Temperature 66 °F - - ()
Min Temperature 54 °F - - ()
Degree Days  
Heating Degree Days 5    
Month to date heating degree days 33  
Since 1 July heating degree days 559  
Cooling Degree Days 0    
Month to date cooling degree days 0  
Year to date cooling degree days 245  
Growing Degree Days 10 (Base 50)    
Moisture  
Dew Point 57 °F    
Average Humidity 89    
Maximum Humidity 100    
Minimum Humidity 78    
Precipitation  
Precipitation 0.03 in - - ()
Month to date precipitation 0.66  
Year to date precipitation 37.62  
Sea Level Pressure  
Sea Level Pressure 30.26 in    
Wind  
Wind Speed 1 mph (SSE)    
Max Wind Speed 7 mph    
Max Gust Speed 8 mph    
Visibility 7 miles    
Events Fog , Rain    
T = Trace of Precipitation, MM = Missing Value Source: NWS Daily Summary

Daily Weather History Graph

Daily Weather History Graph

Search for Another Location

Airport or City:

Trip Planner

Search our weather history database for the weather conditions in past years. The results will help you decide how hot, cold, wet, or windy it might be!

Date:

Astronomy

Nov. 04, 2012 Rise Set
Actual Time 6:56 AM PST 4:52 PM PST
Civil Twilight 6:25 AM PST 5:24 PM PST
Nautical Twilight 5:49 AM PST 5:59 PM PST
Astronomical Twilight 5:15 AM PST 6:34 PM PST
Moon 9:34 PM PST 11:46 AM PST
Length of Visible Light 10h 58m
Length of Day
9h 56m
Waning Gibbous, 71% of the Moon is Illuminated
Nov 4
Waning Gibbous
Nov 6
Last Quarter
Nov 13
New
Nov 20
First Quarter
Nov 28
Full

Hourly Weather History & Observations

Time (PST) Temp. Dew Point Humidity Pressure Visibility Wind Dir Wind Speed Gust Speed Precip Events Conditions
12:53 AM 55.0 °F 54.0 °F 96% 30.18 in 9.0 mi Calm Calm - N/A   Overcast
1:53 AM 55.0 °F 54.0 °F 96% 30.19 in 9.0 mi Calm Calm - N/A   Overcast
1:53 AM 55.0 °F 54.0 °F 96% 30.19 in 8.0 mi Calm Calm - N/A   Overcast
2:53 AM 55.0 °F 54.0 °F 96% 30.19 in 9.0 mi Calm Calm - N/A   Overcast
3:12 AM 55.4 °F 53.6 °F 94% 30.19 in 5.0 mi Calm Calm - 0.01 in   Overcast
3:53 AM 55.9 °F 54.0 °F 93% 30.20 in 7.0 mi Calm Calm - 0.01 in   Overcast
4:37 AM 55.4 °F 55.4 °F 100% 30.20 in 5.0 mi Calm Calm - N/A   Overcast
4:53 AM 55.9 °F 55.0 °F 97% 30.21 in 7.0 mi Calm Calm - N/A   Overcast
5:24 AM 55.4 °F 55.4 °F 100% 30.21 in 8.0 mi Calm Calm - N/A   Overcast
5:53 AM 55.9 °F 55.0 °F 97% 30.21 in 7.0 mi Calm Calm - N/A   Overcast
6:09 AM 55.4 °F 55.4 °F 100% 30.21 in 9.0 mi Calm Calm - N/A   Overcast
6:17 AM 55.4 °F 55.4 °F 100% 30.21 in 6.0 mi Calm Calm - N/A   Overcast
6:26 AM 55.4 °F 55.4 °F 100% 30.22 in 5.0 mi Calm Calm - 0.00 in Rain Light Rain
6:39 AM 55.4 °F 55.4 °F 100% 30.22 in 7.0 mi Calm Calm - 0.00 in Rain Light Rain
6:53 AM 55.9 °F 55.0 °F 97% 30.23 in 6.0 mi Calm Calm - 0.00 in Rain Light Rain
7:40 AM 57.2 °F 55.4 °F 94% 30.24 in 4.0 mi Calm Calm - 0.01 in Rain Light Rain
7:53 AM 57.0 °F 55.9 °F 96% 30.25 in 3.0 mi South 3.5 mph - 0.02 in   Overcast
8:50 AM 57.2 °F 57.2 °F 100% 30.26 in 7.0 mi Calm Calm - N/A   Overcast
8:53 AM 57.9 °F 57.0 °F 97% 30.26 in 8.0 mi SSE 3.5 mph - N/A   Overcast
9:00 AM 57.2 °F 57.2 °F 100% 30.26 in 6.0 mi SSE 3.5 mph - N/A   Overcast
9:53 AM 59.0 °F 57.9 °F 96% 30.27 in 10.0 mi Calm Calm - N/A   Overcast
10:35 AM 60.8 °F 57.2 °F 88% 30.28 in 10.0 mi Calm Calm - N/A   Overcast
10:53 AM 61.0 °F 57.9 °F 90% 30.29 in 10.0 mi SSE 5.8 mph - N/A   Overcast
11:14 AM 62.6 °F 57.2 °F 82% 30.28 in 10.0 mi SSE 6.9 mph - N/A   Overcast
11:53 AM 62.1 °F 57.9 °F 86% 30.29 in 10.0 mi SE 6.9 mph - N/A   Overcast
12:17 PM 62.6 °F 57.2 °F 82% 30.28 in 10.0 mi SE 4.6 mph - N/A   Overcast
12:53 PM 64.0 °F 57.9 °F 80% 30.29 in 10.0 mi Calm Calm - N/A   Overcast
1:51 PM 62.6 °F 59.0 °F 88% 30.28 in 10.0 mi SE 4.6 mph - N/A   Overcast
1:53 PM 63.0 °F 59.0 °F 87% 30.29 in 10.0 mi SE 3.5 mph - N/A   Overcast
2:53 PM 66.0 °F 60.1 °F 81% 30.29 in 5.0 mi Calm Calm - N/A   Haze
3:53 PM 66.0 °F 60.1 °F 81% 30.29 in 10.0 mi Calm Calm - N/A   Overcast
4:53 PM 63.0 °F 61.0 °F 93% 30.29 in 10.0 mi Calm Calm - N/A   Overcast
5:53 PM 60.1 °F 59.0 °F 96% 30.29 in 7.0 mi Calm Calm - N/A   Mostly Cloudy
6:24 PM 57.2 °F 57.2 °F 100% 30.29 in 1.5 mi SSE 4.6 mph - N/A   Partly Cloudy
6:29 PM 57.2 °F 57.2 °F 100% 30.29 in 0.2 mi SSE 4.6 mph - N/A Fog Fog
6:35 PM 57.2 °F 57.2 °F 100% 30.29 in 0.2 mi South 3.5 mph - N/A Fog Fog
6:39 PM 57.2 °F 57.2 °F 100% 30.29 in 0.5 mi Calm Calm - N/A Fog Fog
6:49 PM 57.2 °F 57.2 °F 100% 30.29 in 0.8 mi Calm Calm - N/A   Mostly Cloudy
6:53 PM 57.9 °F 57.0 °F 97% 30.30 in 1.0 mi WSW 3.5 mph - N/A   Mostly Cloudy
7:07 PM 57.2 °F 57.2 °F 100% 30.30 in 3.0 mi WSW 3.5 mph - N/A   Mostly Cloudy
7:53 PM 57.9 °F 57.9 °F 100% 30.30 in 10.0 mi Calm Calm - N/A   Overcast
8:53 PM 59.0 °F 57.9 °F 96% 30.30 in 10.0 mi Calm Calm - N/A   Overcast
9:53 PM 57.9 °F 57.9 °F 100% 30.31 in 10.0 mi Calm Calm - N/A   Overcast
10:53 PM 59.0 °F 57.0 °F 93% 30.30 in 10.0 mi Calm Calm - N/A   Overcast